Monroe, NC

6:51 AM EDT on September 21, 2017 (GMT -0400)
Monroe

Weather History for KEQY - January, 2013

Change the Weather History Date:

Tuesday, January 15, 2013

  Actual Average (KCLT) Record (KCLT)
Temperature  
Mean Temperature 56 °F -  
Max Temperature 66 °F 48 °F 77 °F (1907)
Min Temperature 46 °F 28 °F 12 °F (1994)
Degree Days  
Heating Degree Days 9    
Growing Degree Days 6 (Base 50)    
Moisture  
Dew Point 50 °F    
Average Humidity 94    
Maximum Humidity 100    
Minimum Humidity 79    
Precipitation  
Precipitation 0.00 in - - ()
Sea Level Pressure  
Sea Level Pressure 30.13 in    
Wind  
Wind Speed 7 mph (NE)    
Max Wind Speed 16 mph    
Max Gust Speed 79 mph    
Visibility 4 miles    
Events Fog    
Averages and records for this station are not official NWS values.
T = Trace of Precipitation, MM = Missing Value Source: NWS Daily Summary

Daily Weather History Graph

Daily Weather History Graph

Search for Another Location

Airport or City:

Trip Planner

Search our weather history database for the weather conditions in past years. The results will help you decide how hot, cold, wet, or windy it might be!

Date:

Astronomy

Jan. 15, 2013 Rise Set
Actual Time 7:29 AM EST 5:34 PM EST
Civil Twilight 7:02 AM EST 6:01 PM EST
Nautical Twilight 6:31 AM EST 6:32 PM EST
Astronomical Twilight 6:00 AM EST 7:03 PM EST
Moon 9:46 AM EST (1/15) 10:09 PM EST (1/15)
Length of Visible Light 10h 59m
Length of Day
10h 04m
Waxing Crescent, 19% of the Moon is Illuminated
Jan 15
Waxing Crescent
Jan 18
First Quarter
Jan 26
Full
Feb 3
Last Quarter
Feb 10
New

Hourly Weather History & Observations

Time (EST) Temp. Dew Point Humidity Pressure Visibility Wind Dir Wind Speed Gust Speed Precip Events Conditions
12:53 AM 66.9 °F 60.1 °F 79% 30.12 in 10.0 mi SSW 6.9 mph - N/A   Overcast
1:53 AM 66.9 °F 60.1 °F 79% 30.12 in 10.0 mi SSW 4.6 mph - N/A   Overcast
2:53 AM 64.9 °F 60.1 °F 84% 30.12 in 10.0 mi Calm Calm - 0.00 in   Overcast
3:53 AM 64.0 °F 60.1 °F 87% 30.12 in 10.0 mi Calm Calm - N/A   Overcast
4:53 AM 57.9 °F 57.0 °F 97% 30.10 in 10.0 mi NE 11.5 mph - 0.00 in   Overcast
5:19 AM 57.2 °F 55.4 °F 94% 30.09 in 10.0 mi NE 6.9 mph - N/A   Overcast
5:29 AM 57.2 °F 55.4 °F 94% 30.08 in 10.0 mi ENE 4.6 mph - N/A   Overcast
5:53 AM 55.9 °F 55.0 °F 97% 30.10 in 10.0 mi East 4.6 mph - N/A   Overcast
7:53 AM 52.0 °F 51.1 °F 97% 30.16 in 7.0 mi NE 9.2 mph - N/A   Overcast
8:09 AM 51.8 °F 50.0 °F 94% 30.14 in 5.0 mi NE 8.1 mph - N/A   Overcast
8:40 AM 51.8 °F 50.0 °F 94% 30.15 in 1.8 mi NE 9.2 mph - N/A   Overcast
8:51 AM 51.8 °F 50.0 °F 94% 30.16 in 2.5 mi ENE 6.9 mph - N/A   Overcast
8:53 AM 51.1 °F 50.0 °F 96% 30.19 in 2.5 mi NE 8.1 mph - N/A   Overcast
9:24 AM 50.0 °F 50.0 °F 100% 30.18 in 1.5 mi NE 16.1 mph 79.4 mph N/A   Overcast
9:53 AM 50.0 °F 48.9 °F 96% 30.19 in 0.8 mi NE 9.2 mph - N/A   Overcast
10:14 AM 50.0 °F 48.2 °F 94% 30.18 in 1.2 mi NNE 11.5 mph - N/A   Overcast
10:53 AM 50.0 °F 48.9 °F 96% 30.19 in 1.0 mi NE 9.2 mph - N/A   Overcast
11:44 AM 51.8 °F 48.2 °F 88% 30.14 in 3.0 mi NE 6.9 mph - N/A   Overcast
11:53 AM 52.0 °F 48.9 °F 89% 30.17 in 6.0 mi ENE 8.1 mph - N/A   Overcast
12:11 PM 51.8 °F 48.2 °F 88% 30.15 in 6.0 mi NE 9.2 mph - N/A   Overcast
12:53 PM 51.1 °F 48.9 °F 92% 30.15 in 5.0 mi NE 9.2 mph - N/A   Overcast
1:53 PM 52.0 °F 48.9 °F 89% 30.12 in 4.0 mi NNE 10.4 mph - N/A   Overcast
2:53 PM 51.1 °F 48.9 °F 92% 30.12 in 3.0 mi NE 10.4 mph - N/A   Overcast
3:14 PM 50.0 °F 48.2 °F 94% 30.09 in 1.8 mi NE 10.4 mph - N/A   Overcast
3:53 PM 50.0 °F 48.9 °F 96% 30.12 in 1.0 mi ENE 8.1 mph - N/A   Overcast
4:39 PM 50.0 °F 48.2 °F 94% 30.10 in 0.8 mi ENE 9.2 mph - N/A   Overcast
4:53 PM 50.0 °F 48.9 °F 96% 30.13 in 0.8 mi NE 6.9 mph - N/A   Overcast
5:17 PM 48.2 °F 48.2 °F 100% 30.10 in 1.0 mi NE 8.1 mph - N/A   Overcast
5:28 PM 48.2 °F 48.2 °F 100% 30.10 in 0.8 mi NNE 9.2 mph - N/A   Overcast
5:35 PM 48.2 °F 48.2 °F 100% 30.11 in 1.2 mi NNE 11.5 mph - N/A   Overcast
5:53 PM 48.9 °F 48.0 °F 97% 30.14 in 1.0 mi NE 9.2 mph - N/A   Overcast
6:16 PM 48.2 °F 48.2 °F 100% 30.11 in 0.8 mi NE 9.2 mph - N/A   Mist
6:53 PM 48.0 °F 48.0 °F 100% 30.14 in 0.8 mi ENE 6.9 mph - N/A   Mist
7:31 PM 48.2 °F 48.2 °F 100% 30.11 in 0.5 mi NE 6.9 mph - N/A Fog Fog
7:53 PM 48.0 °F 48.0 °F 100% 30.14 in 0.5 mi NNE 8.1 mph - N/A Fog Fog
8:53 PM 48.0 °F 46.9 °F 96% 30.12 in 0.2 mi ENE 4.6 mph - N/A Fog Fog
9:53 PM 48.0 °F 46.9 °F 96% 30.09 in 0.5 mi East 6.9 mph - N/A Fog Fog
10:53 PM 46.9 °F 46.0 °F 97% 30.10 in 0.5 mi NNE 5.8 mph - N/A Fog Fog
11:53 PM 46.9 °F 46.0 °F 97% 30.09 in 0.5 mi North 4.6 mph - N/A Fog Fog